• In Deutschland
  • Länderverzeichnis
  • Für 7 Tage
  • Wassertemperatur
  • Satellitenkarten
  • Wetterkarte
  • Widgets
  • user-avatar
    Anmelden

    Stündliche Wetter Pforzheim

    Heute, 25 September, Dienstag

    Zeit Temperatur Niederschläge Wind Luftdruck Luftfeuchtigkeit
    00:00 +8°C° 0 mm 1 m/S 753 mmHg 76%
    01:00 +8°C° 0 mm 1 m/S 753 mmHg 79%
    02:00 +7°C° 0 mm 1 m/S 753 mmHg 81%
    03:00 +7°C° 0 mm 1 m/S 753 mmHg 83%
    04:00 +7°C° 0 mm 1 m/S 753 mmHg 85%
    05:00 +7°C° 0 mm 1 m/S 753 mmHg 85%
    06:00 +7°C° 0 mm 1 m/S 753 mmHg 85%
    07:00 +7°C° 0 mm 1 m/S 753 mmHg 85%
    08:00 +8°C° 0 mm 2 m/S 753 mmHg 74%
    09:00 +10°C° 0 mm 3 m/S 753 mmHg 64%
    10:00 +12°C° 0 mm 4 m/S 753 mmHg 53%
    11:00 +12°C° 0 mm 4 m/S 753 mmHg 48%
    12:00 +13°C° 0 mm 4 m/S 753 mmHg 43%
    13:00 +14°C° 0 mm 4 m/S 753 mmHg 38%
    14:00 +14°C° 0 mm 4 m/S 753 mmHg 39%
    15:00 +14°C° 0 mm 4 m/S 752 mmHg 39%
    16:00 +14°C° 0 mm 4 m/S 752 mmHg 39%
    17:00 +13°C° 0 mm 3 m/S 752 mmHg 45%
    18:00 +11°C° 0 mm 3 m/S 752 mmHg 51%
    19:00 +9°C° 0 mm 3 m/S 752 mmHg 56%
    20:00 +9°C° 0 mm 3 m/S 752 mmHg 59%
    21:00 +8°C° 0 mm 2 m/S 753 mmHg 61%
    22:00 +7°C° 0 mm 2 m/S 753 mmHg 63%
    23:00 +7°C° 0 mm 2 m/S 752 mmHg 65%

    Morgen, 26 September, Mittwoch

    Zeit Temperatur Niederschläge Wind Luftdruck Luftfeuchtigkeit
    00:00 +6°C° 0 mm 2 m/S 752 mmHg 66%
    01:00 +6°C° 0 mm 2 m/S 752 mmHg 67%
    02:00 +6°C° 0 mm 2 m/S 752 mmHg 68%
    03:00 +5°C° 0 mm 2 m/S 751 mmHg 69%
    04:00 +5°C° 0 mm 2 m/S 751 mmHg 70%
    05:00 +5°C° 0 mm 2 m/S 751 mmHg 70%
    06:00 +5°C° 0 mm 2 m/S 751 mmHg 70%
    07:00 +6°C° 0 mm 1 m/S 752 mmHg 70%
    08:00 +9°C° 0 mm 1 m/S 752 mmHg 61%
    09:00 +11°C° 0 mm 1 m/S 752 mmHg 53%
    10:00 +14°C° 0 mm 1 m/S 752 mmHg 44%
    11:00 +16°C° 0 mm 1 m/S 751 mmHg 40%
    12:00 +19°C° 0 mm 1 m/S 751 mmHg 36%
    13:00 +21°C° 0 mm 1 m/S 751 mmHg 32%
    14:00 +21°C° 0 mm 1 m/S 751 mmHg 33%
    15:00 +19°C° 0 mm 0 m/S 750 mmHg 33%
    16:00 +19°C° 0 mm 0 m/S 750 mmHg 33%
    17:00 +17°C° 0 mm 0 m/S 750 mmHg 39%
    18:00 +14°C° 0 mm 0 m/S 750 mmHg 45%
    19:00 +12°C° 0 mm 0 m/S 750 mmHg 50%
    20:00 +11°C° 0 mm 0 m/S 750 mmHg 52%
    21:00 +12°C° 0 mm 1 m/S 750 mmHg 54%
    22:00 +11°C° 0 mm 1 m/S 751 mmHg 55%
    23:00 +11°C° 0 mm 1 m/S 751 mmHg 57%

    übermorgen, 27 September, Donnerstag

    Zeit Temperatur Niederschläge Wind Luftdruck Luftfeuchtigkeit
    00:00 +11°C° 0 mm 1 m/S 750 mmHg 59%
    01:00 +11°C° 0 mm 1 m/S 750 mmHg 61%
    02:00 +10°C° 0 mm 1 m/S 750 mmHg 62%
    03:00 +10°C° 0 mm 1 m/S 750 mmHg 63%
    04:00 +10°C° 0 mm 1 m/S 750 mmHg 64%
    05:00 +10°C° 0 mm 1 m/S 750 mmHg 64%
    06:00 +10°C° 0 mm 1 m/S 750 mmHg 64%
    07:00 +10°C° 0 mm 1 m/S 750 mmHg 64%
    08:00 +12°C° 0 mm 0 m/S 750 mmHg 57%
    09:00 +15°C° 0 mm 0 m/S 750 mmHg 50%
    10:00 +18°C° 0 mm 0 m/S 750 mmHg 43%
    11:00 +19°C° 0 mm 0 m/S 749 mmHg 40%
    12:00 +21°C° 0 mm 0 m/S 749 mmHg 37%
    13:00 +23°C° 0 mm 0 m/S 748 mmHg 34%
    14:00 +22°C° 0 mm 0 m/S 748 mmHg 35%
    15:00 +22°C° 0 mm 0 m/S 747 mmHg 36%
    16:00 +22°C° 0 mm 0 m/S 746 mmHg 37%
    17:00 +20°C° 0 mm 0 m/S 746 mmHg 43%
    18:00 +17°C° 0 mm 0 m/S 746 mmHg 50%
    19:00 +15°C° 0 mm 0 m/S 745 mmHg 56%
    20:00 +14°C° 0 mm 0 m/S 745 mmHg 58%
    21:00 +15°C° 0 mm 1 m/S 745 mmHg 60%
    22:00 +14°C° 0 mm 1 m/S 745 mmHg 62%
    23:00 +14°C° 0 mm 1 m/S 745 mmHg 64%

    28 September, Freitag

    Zeit Temperatur Niederschläge Wind Luftdruck Luftfeuchtigkeit
    00:00 +14°C° 0 mm 1 m/S 745 mmHg 66%
    01:00 +14°C° 0 mm 1 m/S 744 mmHg 68%
    02:00 +13°C° 0 mm 1 m/S 744 mmHg 70%
    03:00 +13°C° 0 mm 1 m/S 744 mmHg 73%
    04:00 +13°C° 0 mm 1 m/S 743 mmHg 75%
    05:00 +12°C° 0 mm 1 m/S 743 mmHg 77%
    06:00 +12°C° 0 mm 1 m/S 743 mmHg 79%
    07:00 +12°C° 0 mm 1 m/S 743 mmHg 81%
    08:00 +15°C° 0 mm 1 m/S 743 mmHg 72%
    09:00 +18°C° 0 mm 1 m/S 743 mmHg 64%
    10:00 +20°C° 0 mm 1 m/S 744 mmHg 55%
    11:00 +21°C° 0 mm 1 m/S 743 mmHg 53%
    12:00 +21°C° 0 mm 2 m/S 743 mmHg 50%
    13:00 +23°C° 0 mm 2 m/S 743 mmHg 47%
    14:00 +23°C° 0 mm 2 m/S 742 mmHg 48%
    15:00 +23°C° 0 mm 2 m/S 742 mmHg 49%
    16:00 +23°C° 0 mm 2 m/S 742 mmHg 49%
    17:00 +20°C° 0 mm 2 m/S 742 mmHg 54%
    18:00 +18°C° 0 mm 2 m/S 742 mmHg 58%
    19:00 +16°C° 0 mm 2 m/S 742 mmHg 62%
    20:00 +15°C° 0 mm 2 m/S 743 mmHg 66%
    21:00 +14°C° 0 mm 2 m/S 743 mmHg 69%
    22:00 +13°C° 0 mm 2 m/S 744 mmHg 72%
    23:00 +13°C° 0 mm 2 m/S 744 mmHg 77%

    29 September, Samstag

    Zeit Temperatur Niederschläge Wind Luftdruck Luftfeuchtigkeit
    00:00 +12°C° 0 mm 2 m/S 744 mmHg 81%
    01:00 +10°C° 0 mm 2 m/S 744 mmHg 86%
    02:00 +10°C° 0 mm 2 m/S 744 mmHg 87%
    03:00 +9°C° 0 mm 2 m/S 744 mmHg 87%
    04:00 +9°C° 0 mm 2 m/S 744 mmHg 88%
    05:00 +9°C° 0 mm 2 m/S 745 mmHg 87%
    06:00 +8°C° 0 mm 2 m/S 745 mmHg 86%
    07:00 +8°C° 0 mm 2 m/S 745 mmHg 85%
    08:00 +10°C° 0 mm 3 m/S 745 mmHg 78%
    09:00 +11°C° 0 mm 3 m/S 745 mmHg 70%
    10:00 +13°C° 0 mm 3 m/S 745 mmHg 63%
    11:00 +14°C° 0 mm 4 m/S 745 mmHg 58%
    12:00 +15°C° 0 mm 4 m/S 745 mmHg 53%
    13:00 +17°C° 0 mm 4 m/S 744 mmHg 47%
    14:00 +17°C° 0 mm 4 m/S 744 mmHg 47%
    15:00 +17°C° 0 mm 4 m/S 744 mmHg 46%
    16:00 +17°C° 0 mm 4 m/S 744 mmHg 45%
    17:00 +14°C° 0 mm 4 m/S 744 mmHg 50%
    18:00 +12°C° 0 mm 3 m/S 744 mmHg 54%
    19:00 +11°C° 0 mm 3 m/S 744 mmHg 58%
    20:00 +10°C° 0 mm 3 m/S 744 mmHg 60%
    21:00 +9°C° 0 mm 2 m/S 744 mmHg 63%
    22:00 +9°C° 0 mm 2 m/S 744 mmHg 65%
    23:00 +8°C° 0 mm 2 m/S 744 mmHg 67%

    30 September, Sonntag

    Zeit Temperatur Niederschläge Wind Luftdruck Luftfeuchtigkeit
    00:00 +7°C° 0 mm 2 m/S 743 mmHg 69%
    01:00 +7°C° 0 mm 2 m/S 743 mmHg 70%
    02:00 +6°C° 0 mm 2 m/S 743 mmHg 72%
    03:00 +7°C° 0 mm 1 m/S 743 mmHg 73%
    04:00 +7°C° 0 mm 1 m/S 743 mmHg 74%
    05:00 +6°C° 0 mm 1 m/S 743 mmHg 75%
    06:00 +6°C° 0 mm 1 m/S 743 mmHg 75%
    07:00 +6°C° 0 mm 1 m/S 743 mmHg 76%
    08:00 +8°C° 0 mm 2 m/S 743 mmHg 68%
    09:00 +10°C° 0 mm 2 m/S 743 mmHg 60%
    10:00 +13°C° 0 mm 2 m/S 743 mmHg 51%
    11:00 +14°C° 0 mm 2 m/S 743 mmHg 47%
    12:00 +16°C° 0 mm 2 m/S 742 mmHg 43%
    13:00 +17°C° 0 mm 3 m/S 742 mmHg 39%
    14:00 +17°C° 0 mm 3 m/S 742 mmHg 39%
    15:00 +17°C° 0 mm 2 m/S 742 mmHg 40%
    16:00 +17°C° 0 mm 2 m/S 742 mmHg 40%
    17:00 +15°C° 0 mm 2 m/S 742 mmHg 46%
    18:00 +13°C° 0 mm 2 m/S 742 mmHg 52%
    19:00 +11°C° 0 mm 1 m/S 743 mmHg 58%
    20:00 +11°C° 0 mm 1 m/S 743 mmHg 60%
    21:00 +10°C° 0 mm 1 m/S 743 mmHg 62%
    22:00 +9°C° 0 mm 1 m/S 744 mmHg 65%
    23:00 +9°C° 0 mm 1 m/S 744 mmHg 67%
    Mehr zeigen